Overview Statistics Trail Chart Weather Telemetry Raw packets
 

This is the latest recevied weather packets stored in our database for station/object K4WCH. If no packets are shown the sender has not sent any weather packets the latest 10 day(s).

<< 53 54 55 56 57 58 59 >>
Time Temp. Humidity Pressure Rain* Wind** Luminosity Snow
1788302895 28.89° C 79% 1016 hPa 0 mm - 77 W/m² -
1788302591 28.89° C 78% 1015.9 hPa 0 mm - 84 W/m² -
1788302287 28.89° C 77% 1015.9 hPa 0 mm - 88 W/m² -
1788301982 29.44° C 75% 1015.9 hPa 0 mm - 98 W/m² -
1788301678 29.44° C 75% 1015.7 hPa 0 mm - 124 W/m² -
1788301374 29.44° C 74% 1015.8 hPa 0 mm - 160 W/m² -
1788301069 30° C 74% 1015.9 hPa 0 mm - 170 W/m² -
1788300765 30.56° C 73% 1015.6 hPa 0 mm - 179 W/m² -
1788300464 30.56° C 72% 1015.5 hPa 0 mm - 256 W/m² -
1788300164 30.56° C 73% 1015.5 hPa 0 mm - 314 W/m² -
1788299863 30° C 77% 1015.6 hPa 0 mm - 320 W/m² -
1788299563 30° C 78% 1015.4 hPa 0 mm - 354 W/m² -
1788299261 29.44° C 79% 1015.4 hPa 0 mm - 361 W/m² -
1788298960 28.89° C 83% 1015.4 hPa 0 mm - 286 W/m² -
1788298655 28.33° C 83% 1015.5 hPa 0 mm - 177 W/m² -
1788298355 28.33° C 83% 1015.4 hPa 0 mm - 152 W/m² -
1788298055 28.33° C 83% 1015.5 hPa 0 mm - 123 W/m² -
1788297751 28.33° C 83% 1015.5 hPa 0 mm - 112 W/m² -
1788297445 28.89° C 81% 1015.5 hPa 0 mm - 105 W/m² -
1788297142 28.89° C 79% 1015.6 hPa 0 mm - 125 W/m² -
1788296838 28.89° C 78% 1015.4 hPa 0 mm - 156 W/m² -
1788296533 29.44° C 77% 1015.4 hPa 0 mm - 164 W/m² -
1788296229 29.44° C 76% 1015.5 hPa 0 mm - 211 W/m² -
1788295923 29.44° C 76% 1015.4 hPa 0 mm - 228 W/m² -
1788295642 30° C 74% 1015.5 hPa 0 mm - 205 W/m² -

* Rain latest hour (hover to see other rain measurements)
** Current wind speed in m/s (hover to see current wind gust speed)